[[{"header":{"parameterUnit":"m.s-1","parameterCategory":1,"la1":30.2991,"la2":30.254,"lo1":-89.0895,"lo2":-89.0444,"dy":0.0017,"dx":0.0017,"nx":28,"ny":28,"refTime":"2024-03-16T21:00:00:Z","depth":0,"parameterNumber":2,"parameterNumberName":"U-component_of_WINDS"},"data":[0,0,0,0,0,0,0,0,0,0,0,0,0,0,0,0,0,0,0,0,0,0,0,0,0,0,0,0,0,0,0,0,0,0,0,0,0,0,0,0,0,0,0,0,0,0,0,0,0,0,0,0,0,0,0,0,0,0,-2.0539,-2.054,0,-2.0567,-2.0568,-2.0568,-2.0506,-2.0504,-2.0503,-2.0501,-2.053,-2.0532,-2.0535,0,0,0,0,0,0,0,0,0,0,0,0,0,-2.0434,-2.0436,-2.0539,-2.054,-2.054,-2.0567,-2.0568,-2.0568,-2.0507,-2.0504,-2.0502,-2.05,-2.0529,-2.0532,-2.0535,0,0,0,0,0,0,0,0,0,0,0,0,0,-2.0473,-2.0437,-2.0539,-2.0513,-2.0511,-2.0567,-2.0568,-2.0568,-2.0507,-2.0504,-2.0501,-2.0499,-2.0528,-2.0532,-2.0536,-2.0619,0,0,-2.0548,-2.0549,0,0,0,0,0,0,0,0,-2.047,-2.0476,-2.0516,-2.0515,-2.0512,-2.053,-2.0541,-2.0585,-2.0508,-2.0509,-2.0501,-2.0497,-2.0533,-2.0536,-2.0548,-2.0621,-2.0622,-2.0548,-2.055,-2.0552,-2.0553,0,0,0,0,0,0,0,-2.0468,-2.0475,-2.055,-2.0517,-2.0515,-2.05,-2.0502,-2.0549,-2.0537,-2.0508,-2.0504,-2.0508,-2.0531,-2.0544,-2.0548,-2.0623,-2.0548,-2.0551,-2.0554,-2.0555,-2.0766,-2.0769,0,0,0,0,0,0,-2.0468,-2.0473,-2.055,-2.0551,-2.0484,-2.0504,-2.0507,-2.0528,-2.0536,-2.0535,-2.0511,-2.0505,-2.0539,-2.0543,-2.0549,-2.0647,-2.0552,-2.0556,-2.0558,-2.0763,-2.0767,-2.077,0,0,0,0,0,0,-2.0466,-2.0476,-2.0548,-2.0511,-2.0519,-2.0509,-2.0533,-2.053,-2.0543,-2.0538,-2.0535,-2.0526,-2.0537,-2.0543,-2.0602,-2.0647,-2.0558,-2.0561,-2.0759,-2.0764,-2.0769,-2.0845,0,0,0,0,0,0,-2.0464,-2.0475,-2.0507,-2.0512,-2.0521,-2.0602,-2.0536,-2.0532,-2.055,-2.0543,-2.0552,-2.0551,-2.0535,-2.0597,-2.0606,-2.0651,-2.0564,-2.0755,-2.0761,-2.0767,-2.0839,-2.0852,-2.0864,0,0,0,0,0,-2.046,-2.0527,-2.0509,-2.0518,-2.056,-2.0604,-2.0609,-2.059,-2.0554,-2.0585,-2.0582,-2.055,-2.0641,-2.0603,-2.0614,-2.066,-2.0752,-2.076,-2.0767,-2.0833,-2.0849,-2.0863,0,0,0,0,0,0,-2.0528,-2.0528,-2.0507,-2.0578,-2.0592,-2.0594,-2.0633,-2.0608,-2.0632,-2.0625,-2.0599,-2.0602,-2.0666,-2.0669,-2.0627,-2.0742,-2.069,-2.07,-2.0738,-2.0753,-2.0765,-2.0763,-2.0568,0,0,0,0,0,-2.0551,-2.0586,-2.0584,-2.0647,-2.0655,-2.0643,-2.0662,-2.0645,-2.0658,-2.0664,-2.0665,-2.0679,-2.0711,-2.0732,-2.0761,-2.0839,-2.084,-2.0876,-2.0889,-2.0899,-2.0908,-2.0949,-2.0965,-2.0794,-2.0794,-2.0794,0,0,-2.0599,-2.0603,-2.0627,-2.0661,-2.067,-2.0707,-2.0648,-2.069,-2.0718,-2.067,-2.0726,-2.0728,-2.0742,-2.0811,-2.0841,-2.0815,-2.0955,-2.0908,-2.0917,-2.092,-2.0958,-2.0975,-2.0989,-2.0799,-2.0798,-2.0798,0,0,-2.0706,-2.0713,-2.0766,-2.0776,-2.079,-2.0781,-2.0795,-2.0801,-2.08,-2.0856,-2.0821,-2.0853,-2.0909,-2.092,-2.0933,-2.1046,-2.1017,-2.1056,-2.1121,-2.1162,-2.1175,-2.1187,-2.1227,-2.1242,-2.1064,-2.1065,-2.1065,0,-2.0764,-2.0819,-2.0796,-2.0841,-2.0857,-2.0816,-2.087,-2.088,-2.0903,-2.0915,-2.0886,-2.0955,-2.0961,-2.1032,-2.106,-2.1072,-2.1086,-2.1054,-2.1175,-2.1187,-2.1197,-2.1235,-2.125,-2.1069,-2.1069,-2.1068,-2.1068,0,-2.0889,-2.0928,-2.0969,-2.0992,-2.1013,-2.1062,-2.1048,-2.1072,-2.1054,-2.1049,-2.1106,-2.1113,-2.1143,-2.1159,-2.1142,-2.1228,-2.1211,-2.1179,-2.1127,-2.1219,-2.1254,-2.1268,-2.1076,-2.1074,-2.1073,-2.1072,0,0,-2.1038,-2.1049,-2.1065,-2.1075,-2.1088,-2.1117,-2.1165,-2.1194,-2.1214,-2.1232,-2.1271,-2.1319,-2.129,-2.1305,-2.1289,-2.1325,-2.1413,-2.1288,-2.1288,-2.1311,-2.1509,-2.1532,-2.1549,-2.1395,-2.1398,-2.14,-2.1507,0,-2.1144,-2.1225,-2.1207,-2.1287,-2.1323,-2.1285,-2.1326,-2.1339,-2.1336,-2.1365,-2.1362,-2.1396,-2.1355,-2.1364,-2.1398,-2.1395,-2.1453,-2.1388,-2.1431,-2.1433,-2.1428,-2.1568,-2.1593,-2.1694,-2.1521,-2.1523,-2.1525,0,-2.1277,-2.13,-2.1384,-2.1391,-2.1405,-2.1443,-2.1468,-2.1497,-2.1511,-2.1506,-2.1524,-2.1501,-2.1548,-2.1496,-2.1561,-2.1517,-2.1534,-2.1536,-2.154,-2.1542,-2.1484,-2.1574,-2.1726,-2.1741,-2.1546,-2.1545,-2.1543,0,-2.1377,-2.1429,-2.1485,-2.1495,-2.1506,-2.1533,-2.1538,-2.1549,-2.1568,-2.159,-2.1602,-2.163,-2.1645,-2.1668,-2.1653,-2.1617,-2.1721,-2.1667,-2.1718,-2.1719,-2.1741,-2.174,-2.1897,-2.1754,-2.1753,-2.1753,-2.1753,0,-2.1496,-2.1549,-2.153,-2.1565,-2.1623,-2.1603,-2.1661,-2.1662,-2.1672,-2.1707,-2.1676,-2.1709,-2.1688,-2.172,-2.171,-2.1765,-2.1772,-2.177,-2.1766,-2.1772,-2.1773,-2.1782,-2.1775,-2.1757,-2.1756,-2.1755,-2.1755,0,-2.1617,-2.1607,-2.1666,-2.1671,-2.1674,-2.1717,-2.1721,-2.1754,-2.1749,-2.1793,-2.1802,-2.1794,-2.183,-2.1819,-2.1857,-2.185,-2.192,-2.1908,-2.1916,-2.1912,-2.1964,-2.1959,-2.2132,-2.2154,-2.1997,-2.1999,-2.2,0,-2.1694,-2.1733,-2.1743,-2.1764,-2.1772,-2.1806,-2.1825,-2.1806,-2.1827,-2.1847,-2.1877,-2.191,-2.1936,-2.1995,-2.1993,-2.2022,-2.201,-2.2069,-2.2014,-2.2019,-2.201,-2.2008,-2.2012,-2.208,-2.2081,-2.2083,-2.2084,0,-2.183,-2.1823,-2.1852,-2.1879,-2.1903,-2.1923,-2.1941,-2.196,-2.1943,-2.1968,-2.2004,-2.2024,-2.2064,-2.2097,-2.2124,-2.213,-2.2105,-2.2102,-2.2115,-2.2121,-2.2123,-2.2122,-2.1945,-2.2097,-2.2096,-2.2095,-2.2094,-2.2094,-2.1931,-2.1964,-2.1976,-2.2009,-2.2021,-2.2038,-2.2069,-2.2068,-2.2098,-2.2129,-2.2116,-2.2158,-2.2172,-2.2205,-2.2215,-2.2247,-2.2225,-2.2244,-2.2249,-2.2254,-2.226,-2.2119,-2.2252,-2.2252,-2.2251,-2.2251,-2.2251,0,-2.2065,-2.2071,-2.2102,-2.2128,-2.2154,-2.2128,-2.2147,-2.217,-2.2207,-2.2222,-2.2248,-2.229,-2.2322,-2.2323,-2.2354,-2.238,-2.2369,-2.2388,-2.2386,-2.2387,-2.2279,-2.2264,-2.2396,-2.2396,-2.2396,-2.2396,-2.2396,-2.2396,-2.2138,-2.2193,-2.2188,-2.2249,-2.2255,-2.2295,-2.2308,-2.2324,-2.2336,-2.2384,-2.2411,-2.2411,-2.2421,-2.2452,-2.248,-2.248,-2.2492,-2.2516,-2.2511,-2.241,-2.2395,-2.2381,-2.2367,-2.2519,-2.2519,-2.2617,-2.2618,-2.2619]},{"header":{"parameterUnit":"m.s-1","parameterCategory":1,"la1":30.2991,"la2":30.254,"lo1":-89.0895,"lo2":-89.0444,"dy":0.0017,"dx":0.0017,"nx":28,"ny":28,"refTime":"2024-03-16T21:00:00:Z","depth":0,"parameterNumber":3,"parameterNumberName":"V-component_of_WINDS"},"data":[0,0,0,0,0,0,0,0,0,0,0,0,0,0,0,0,0,0,0,0,0,0,0,0,0,0,0,0,0,0,0,0,0,0,0,0,0,0,0,0,0,0,0,0,0,0,0,0,0,0,0,0,0,0,0,0,0,0,-0.0236,-0.0235,0,-0.0193,-0.0193,-0.0192,-0.0162,-0.0162,-0.0162,-0.0162,-0.0117,-0.0117,-0.0116,0,0,0,0,0,0,0,0,0,0,0,0,0,-0.029,-0.0289,-0.0236,-0.0235,-0.0235,-0.0193,-0.0193,-0.0192,-0.0162,-0.0162,-0.0162,-0.0161,-0.0118,-0.0117,-0.0116,0,0,0,0,0,0,0,0,0,0,0,0,0,-0.0259,-0.0288,-0.0236,-0.0215,-0.0212,-0.0193,-0.0193,-0.0192,-0.0162,-0.0162,-0.0162,-0.0161,-0.0118,-0.0117,-0.0115,-0.0114,0,0,-0.0111,-0.011,0,0,0,0,0,0,0,0,-0.026,-0.0257,-0.0218,-0.0216,-0.0214,-0.0183,-0.0195,-0.0166,-0.0162,-0.0181,-0.0161,-0.0161,-0.0139,-0.0136,-0.0129,-0.0112,-0.011,-0.0111,-0.011,-0.0109,-0.0109,0,0,0,0,0,0,0,-0.0263,-0.0258,-0.0219,-0.0218,-0.0215,-0.0207,-0.0202,-0.019,-0.0163,-0.018,-0.0177,-0.0173,-0.0138,-0.013,-0.0128,-0.0109,-0.0111,-0.011,-0.0109,-0.0108,-0.0086,-0.0086,0,0,0,0,0,0,-0.0268,-0.026,-0.022,-0.0218,-0.0237,-0.0206,-0.0201,-0.0193,-0.0163,-0.0158,-0.0173,-0.0172,-0.0133,-0.0129,-0.0126,-0.0121,-0.0109,-0.0108,-0.0107,-0.0086,-0.0086,-0.0087,0,0,0,0,0,0,-0.0269,-0.0265,-0.0222,-0.0238,-0.0232,-0.0206,-0.0197,-0.0192,-0.0185,-0.0158,-0.0153,-0.017,-0.0133,-0.0128,-0.0117,-0.0119,-0.0107,-0.0106,-0.0086,-0.0086,-0.0086,-0.0112,0,0,0,0,0,0,-0.0271,-0.0265,-0.0265,-0.0238,-0.0231,-0.0214,-0.0197,-0.0192,-0.0182,-0.018,-0.0154,-0.0149,-0.0132,-0.0119,-0.0115,-0.0117,-0.0105,-0.0085,-0.0086,-0.0086,-0.011,-0.0113,-0.0115,0,0,0,0,0,-0.0273,-0.0274,-0.0265,-0.026,-0.023,-0.0214,-0.021,-0.019,-0.0183,-0.0182,-0.0164,-0.015,-0.0119,-0.0118,-0.0114,-0.0115,-0.0085,-0.0086,-0.0086,-0.0109,-0.0112,-0.0115,0,0,0,0,0,0,-0.0302,-0.027,-0.026,-0.0252,-0.0236,-0.0209,-0.0207,-0.0194,-0.0179,-0.0177,-0.0153,-0.0147,-0.0138,-0.0125,-0.0124,-0.0111,-0.01,-0.01,-0.012,-0.0122,-0.0124,-0.0127,-0.0104,0,0,0,0,0,-0.0307,-0.0297,-0.027,-0.0265,-0.0258,-0.0234,-0.0226,-0.0212,-0.0194,-0.0187,-0.0169,-0.0151,-0.0138,-0.0129,-0.0115,-0.0108,-0.0102,-0.0107,-0.0109,-0.0111,-0.0111,-0.0105,-0.0107,-0.0089,-0.0089,-0.0089,0,0,-0.0318,-0.03,-0.0295,-0.0271,-0.0256,-0.0245,-0.0228,-0.0218,-0.0209,-0.0185,-0.0173,-0.0159,-0.0138,-0.0129,-0.0123,-0.0118,-0.0115,-0.0112,-0.0114,-0.0112,-0.0106,-0.0108,-0.0109,-0.0089,-0.0089,-0.0089,0,0,-0.0332,-0.0318,-0.0312,-0.0298,-0.0276,-0.026,-0.0259,-0.0233,-0.0223,-0.0211,-0.0192,-0.0181,-0.0158,-0.0144,-0.0133,-0.0141,-0.0127,-0.0137,-0.0149,-0.0143,-0.0145,-0.0146,-0.0148,-0.0149,-0.0137,-0.0137,-0.0137,0,-0.0349,-0.0332,-0.0311,-0.0301,-0.0291,-0.0268,-0.0262,-0.0249,-0.0224,-0.0217,-0.0211,-0.0181,-0.0165,-0.0151,-0.0153,-0.0146,-0.0143,-0.014,-0.0146,-0.0147,-0.0148,-0.015,-0.015,-0.0139,-0.0138,-0.0138,-0.0138,0,-0.0353,-0.0342,-0.034,-0.0316,-0.0305,-0.0297,-0.0274,-0.0266,-0.0252,-0.0237,-0.0223,-0.0204,-0.0185,-0.018,-0.0167,-0.0164,-0.0161,-0.0151,-0.014,-0.0151,-0.0152,-0.0153,-0.014,-0.014,-0.014,-0.0139,0,0,-0.0385,-0.0349,-0.0348,-0.0336,-0.031,-0.0301,-0.0291,-0.0273,-0.0266,-0.0249,-0.024,-0.022,-0.021,-0.0199,-0.0184,-0.0179,-0.0185,-0.0169,-0.0168,-0.0172,-0.0179,-0.0187,-0.0188,-0.0176,-0.0176,-0.0176,-0.0181,0,-0.0395,-0.0377,-0.0357,-0.0346,-0.0335,-0.0312,-0.0304,-0.0287,-0.0271,-0.0259,-0.0242,-0.0228,-0.0217,-0.0209,-0.0204,-0.0186,-0.0186,-0.0185,-0.0166,-0.0166,-0.0172,-0.0188,-0.0197,-0.0202,-0.0181,-0.0181,-0.0181,0,-0.0404,-0.0388,-0.0376,-0.035,-0.0344,-0.0337,-0.0318,-0.0307,-0.0286,-0.0275,-0.0262,-0.0245,-0.0233,-0.0224,-0.0207,-0.0206,-0.0197,-0.0187,-0.0187,-0.0184,-0.0174,-0.0186,-0.0204,-0.0205,-0.0182,-0.0182,-0.0182,0,-0.0428,-0.0403,-0.0392,-0.0383,-0.0353,-0.0348,-0.0335,-0.0314,-0.0304,-0.0287,-0.028,-0.0261,-0.0251,-0.0237,-0.0216,-0.0211,-0.0201,-0.019,-0.0191,-0.0191,-0.0189,-0.019,-0.0206,-0.0185,-0.0185,-0.0185,-0.0185,0,-0.0441,-0.0434,-0.0402,-0.0396,-0.0387,-0.0364,-0.0356,-0.034,-0.0322,-0.0311,-0.0291,-0.0281,-0.0254,-0.0241,-0.0224,-0.0212,-0.0208,-0.0198,-0.0194,-0.02,-0.0201,-0.0193,-0.0192,-0.0185,-0.0185,-0.0185,-0.0185,0,-0.0466,-0.0444,-0.0431,-0.0403,-0.0396,-0.039,-0.0366,-0.0358,-0.0341,-0.0328,-0.0324,-0.0297,-0.0281,-0.0258,-0.0235,-0.0224,-0.0213,-0.0206,-0.022,-0.0217,-0.0219,-0.0219,-0.0231,-0.0231,-0.021,-0.0211,-0.0211,0,-0.0475,-0.047,-0.0441,-0.0432,-0.042,-0.0406,-0.0396,-0.0372,-0.0361,-0.0337,-0.0332,-0.0314,-0.0298,-0.0272,-0.0251,-0.0232,-0.0225,-0.023,-0.0222,-0.0227,-0.0224,-0.0224,-0.0223,-0.0232,-0.0232,-0.0233,-0.0233,0,-0.0494,-0.0484,-0.0469,-0.0451,-0.0438,-0.0422,-0.0406,-0.04,-0.0372,-0.0361,-0.0344,-0.0332,-0.0307,-0.0289,-0.0268,-0.0253,-0.0238,-0.0235,-0.0235,-0.024,-0.0248,-0.0243,-0.0225,-0.0235,-0.0235,-0.0235,-0.0235,-0.0235,-0.0511,-0.0505,-0.0483,-0.0467,-0.0452,-0.0436,-0.0427,-0.0409,-0.0394,-0.0373,-0.036,-0.0343,-0.0321,-0.029,-0.0277,-0.0263,-0.0257,-0.0256,-0.0255,-0.0255,-0.0257,-0.0251,-0.0259,-0.0259,-0.0259,-0.0259,-0.0258,0,-0.0529,-0.0513,-0.0499,-0.0476,-0.0463,-0.045,-0.043,-0.042,-0.0406,-0.0387,-0.0371,-0.0351,-0.0333,-0.031,-0.029,-0.0283,-0.0275,-0.0278,-0.0278,-0.0275,-0.0264,-0.0266,-0.0285,-0.0285,-0.0285,-0.0285,-0.0285,-0.0285,-0.0536,-0.0524,-0.0511,-0.049,-0.0475,-0.0458,-0.0448,-0.0433,-0.0418,-0.0396,-0.0381,-0.0366,-0.0344,-0.0323,-0.0305,-0.0299,-0.0292,-0.0297,-0.0289,-0.0278,-0.0276,-0.0274,-0.0276,-0.0296,-0.0296,-0.0301,-0.0301,-0.0301]}]]